Location: Forli
(44.2227°N, 12.0407°E)
Time: 03:44:48
(UTC+01:00)

ARIANE 6 FM1 Upper Stage - Pass Details

Date: 17 February 2026
Orbit: 523 x 607 km, 62.0° (Epoch: 6 March)

Event Time Altitude Azimuth Distance (km) Brightness Sun altitude
Rises 18:38:20 0° 325° (NW) 2,659 6.5 -10.4°
Reaches altitude 10° 18:40:38 10° 333° (NNW) 1,767 5.5 -10.8°
Maximum altitude 18:44:23 40° 44° (NE) 784 3.0 -11.5°
Enters shadow 18:47:13 16° 109° (ESE) 1,437 4.2 -12.0°
